Location: Unspecified
(0.0000°N, 0.0000°E)
Time: 17:33:36
(UTC+00:00)

Vanguard 1 Rocket - Pass Details

Date: 09 December 2017
Orbit: 653 x 4224 km, 34.3° (Epoch: 19 June)

Event Time Altitude Azimuth Distance (km) Brightness Sun altitude
Rises 17:40:28 0° 290° (WNW) 4,473 11.7 2.8°
Reaches altitude 10° 17:44:24 10° 309° (NW) 4,001 11.1 1.9°
Maximum altitude 17:51:35 19° 350° (N) 4,219 10.7 0.2°
Drops below altitude 10° 18:02:04 10° 28° (NNE) 6,020 11.1 -2.2°
Sets 18:10:43 0° 44° (NE) 7,748 11.5 -4.2°
